Weather History for Wheeling, WV

Change the Weather History Date:

Tuesday, October 30, 2012

  Actual Average Record
Temperature  
Mean Temperature 42 °F 49 °F  
Max Temperature 46 °F 58 °F 75 °F (2009)
Min Temperature 38 °F 40 °F 26 °F (1988)
Degree Days  
Heating Degree Days 23 16  
Month to date heating degree days 334 356  
Since 1 July heating degree days 459 457  
Cooling Degree Days 0    
Month to date cooling degree days 22  
Year to date cooling degree days 996  
Moisture  
Dew Point 41 °F    
Average Humidity 93    
Maximum Humidity 100    
Minimum Humidity 86    
Precipitation  
Precipitation 0.82 in 0.07 in 0.82 in (2012)
Month to date precipitation 3.31 2.48  
Sea Level Pressure  
Sea Level Pressure 29.24 in    
Wind  
Wind Speed 10 mph (WNW)    
Max Wind Speed 30 mph    
Max Gust Speed 41 mph    
Visibility 7 miles    
Events Rain    
T = Trace of Precipitation, MM = Missing Value Source: NWS Daily Summary

Daily Weather History Graph

Daily Weather History Graph

Search for Another Location

Airport:

Trip Planner

Search our weather history database for the weather conditions in past years. The results will help you decide how hot, cold, wet, or windy it might be!

Date:

Astronomy

Oct. 30, 2012 Rise Set
Actual Time 7:50 AM EDT 6:21 PM EDT
Civil Twilight 7:22 AM EDT 6:49 PM EDT
Nautical Twilight 6:50 AM EDT 7:21 PM EDT
Astronomical Twilight 6:18 AM EDT 7:53 PM EDT
Moon 6:50 PM EDT (10/30) 8:35 AM EDT (10/30)
Length of Visible Light 11h 27m
Length of Day
10h 31m
Full, 99% of the Moon is Illuminated
Oct 30
Full
Nov 6
Last Quarter
Nov 13
New
Nov 20
First Quarter
Nov 28
Full

Hourly Weather History & Observations

Time (EDT) Temp. Windchill Dew Point Humidity Pressure Visibility Wind Dir Wind Speed Gust Speed Precip Events Conditions
12:53 AM 37.9 °F 27.9 °F 35.1 °F 89% 29.20 in 7.0 mi NW 19.6 mph 38.0 mph 0.11 in Rain Light Rain
1:53 AM 37.9 °F 27.6 °F 35.1 °F 89% 29.16 in 8.0 mi WNW 20.7 mph 34.5 mph 0.07 in Rain Light Rain
3:53 AM 39.9 °F 30.0 °F 37.0 °F 89% 29.11 in 7.0 mi NW 21.9 mph 39.1 mph 0.03 in Rain Light Rain
4:53 AM 39.9 °F 30.5 °F 37.0 °F 89% 29.10 in 5.0 mi NW 19.6 mph 35.7 mph 0.04 in Rain Light Rain
5:53 AM 39.9 °F 30.8 °F 37.9 °F 93% 29.10 in 5.0 mi WNW 18.4 mph 31.1 mph 0.02 in Rain Light Rain
6:32 AM 39.2 °F 31.2 °F 37.4 °F 93% 29.07 in 5.0 mi WNW 13.8 mph 27.6 mph 0.01 in Rain Light Rain
6:53 AM 41.0 °F 32.8 °F 37.9 °F 89% 29.09 in 10.0 mi WNW 16.1 mph 25.3 mph 0.02 in Rain Light Rain
7:53 AM 41.0 °F 32.5 °F 37.9 °F 89% 29.09 in 8.0 mi NW 17.3 mph 27.6 mph 0.02 in Rain Light Rain
8:53 AM 42.1 °F 33.6 °F 39.0 °F 89% 29.11 in 10.0 mi WNW 18.4 mph 26.5 mph 0.03 in Rain Light Rain
9:53 AM 42.1 °F 33.6 °F 39.9 °F 92% 29.12 in 10.0 mi NW 18.4 mph 27.6 mph 0.01 in Rain Light Rain
10:38 AM 42.8 °F 37.5 °F 41.0 °F 93% 29.10 in 10.0 mi NW 9.2 mph - 0.03 in Rain Light Rain
10:53 AM 43.0 °F 36.8 °F 41.0 °F 93% 29.13 in 10.0 mi NW 11.5 mph 19.6 mph 0.03 in Rain Light Rain
11:39 AM 44.6 °F 38.8 °F 42.8 °F 93% 29.12 in 10.0 mi WNW 11.5 mph - 0.01 in Rain Light Rain
11:53 AM 44.1 °F 39.0 °F 42.1 °F 93% 29.15 in 10.0 mi WNW 9.2 mph - 0.01 in Rain Light Rain
12:25 PM 44.6 °F 40.7 °F 42.8 °F 93% 29.14 in 9.0 mi West 6.9 mph - 0.01 in Rain Light Rain
12:53 PM 45.0 °F 40.6 °F 43.0 °F 93% 29.17 in 8.0 mi WNW 8.1 mph - 0.02 in Rain Light Rain
1:53 PM 46.0 °F 44.8 °F 44.1 °F 93% 29.19 in 8.0 mi West 3.5 mph - 0.04 in Rain Light Rain
2:39 PM 46.4 °F 44.3 °F 44.6 °F 93% 29.18 in 5.0 mi WNW 4.6 mph - 0.05 in Rain Light Rain
2:53 PM 46.0 °F 43.1 °F 43.0 °F 89% 29.20 in 7.0 mi WNW 5.8 mph - 0.06 in Rain Light Rain
3:31 PM 46.4 °F - 44.6 °F 93% 29.20 in 9.0 mi Calm Calm - 0.01 in Rain Light Rain
3:40 PM 46.4 °F 43.5 °F 44.6 °F 93% 29.20 in 10.0 mi WNW 5.8 mph - 0.01 in Rain Light Rain
3:50 PM 46.4 °F 43.5 °F 44.6 °F 93% 29.21 in 8.0 mi NW 5.8 mph - 0.01 in Rain Light Rain
3:53 PM 46.0 °F 43.1 °F 44.1 °F 93% 29.23 in 8.0 mi NW 5.8 mph - 0.01 in Rain Light Rain
4:25 PM 44.6 °F 41.4 °F 42.8 °F 93% 29.22 in 9.0 mi North 5.8 mph - 0.02 in Rain Light Rain
4:34 PM 44.6 °F 42.2 °F 42.8 °F 93% 29.23 in 9.0 mi North 4.6 mph - 0.02 in Rain Light Rain
4:53 PM 44.1 °F 42.5 °F 41.0 °F 89% 29.25 in 10.0 mi NNE 3.5 mph - 0.03 in Rain Light Rain
5:45 PM 44.6 °F - 41.0 °F 87% 29.26 in 10.0 mi Calm Calm - 0.01 in Rain Light Rain
5:53 PM 44.1 °F - 42.1 °F 93% 29.29 in 10.0 mi Calm Calm - 0.01 in Rain Light Rain
6:05 PM 44.6 °F - 42.8 °F 93% 29.27 in 8.0 mi Calm Calm - 0.01 in Rain Light Rain
6:16 PM 44.6 °F - 42.8 °F 93% 29.27 in 8.0 mi Calm Calm - 0.01 in Rain Light Rain
6:29 PM 44.6 °F - 42.8 °F 93% 29.28 in 10.0 mi Calm Calm - 0.02 in Rain Light Rain
6:38 PM 44.6 °F - 42.8 °F 93% 29.28 in 7.0 mi Calm Calm - 0.02 in Rain Light Rain
6:53 PM 43.0 °F - 41.0 °F 93% 29.31 in 7.0 mi Calm Calm - 0.03 in Rain Light Rain
7:05 PM 42.8 °F - 39.2 °F 87% 29.29 in 8.0 mi Calm Calm - 0.01 in Rain Light Rain
7:14 PM 42.8 °F - 41.0 °F 93% 29.30 in 8.0 mi Calm Calm - 0.01 in Rain Light Rain
7:51 PM 42.8 °F - 42.8 °F 100% 29.31 in 6.0 mi Calm Calm - 0.05 in Rain Light Rain
7:53 PM 43.0 °F - 42.1 °F 97% 29.34 in 6.0 mi Calm Calm - 0.05 in Rain Light Rain
8:32 PM 42.8 °F - 42.8 °F 100% 29.33 in 1.8 mi Calm Calm - 0.03 in Rain Light Rain
8:47 PM 42.8 °F - 42.8 °F 100% 29.34 in 2.5 mi Calm Calm - 0.04 in Rain Light Rain
8:50 PM 42.8 °F - 41.0 °F 93% 29.34 in 4.0 mi Calm Calm - 0.04 in Rain Light Rain
8:53 PM 42.1 °F - 41.0 °F 96% 29.37 in 5.0 mi Calm Calm - 0.04 in Rain Light Rain
9:20 PM 42.8 °F - 42.8 °F 100% 29.35 in 2.0 mi Calm Calm - 0.02 in Rain Light Rain
9:35 PM 42.8 °F 41.1 °F 42.8 °F 100% 29.36 in 0.8 mi West 3.5 mph - 0.04 in Rain Light Rain
9:50 PM 42.8 °F 40.1 °F 42.8 °F 100% 29.36 in 1.8 mi West 4.6 mph - 0.05 in Rain Light Rain
9:53 PM 43.0 °F 39.5 °F 42.1 °F 97% 29.38 in 1.8 mi West 5.8 mph - 0.05 in Rain Light Rain
10:03 PM 42.8 °F 40.1 °F 42.8 °F 100% 29.36 in 1.2 mi West 4.6 mph - 0.01 in Rain Light Rain
10:09 PM 42.8 °F 40.1 °F 42.8 °F 100% 29.36 in 3.0 mi WSW 4.6 mph - 0.01 in Rain Light Rain
10:27 PM 42.8 °F 39.3 °F 42.8 °F 100% 29.37 in 3.0 mi SW 5.8 mph - 0.02 in Rain Light Rain
10:53 PM 43.0 °F - 42.1 °F 97% 29.39 in 2.0 mi Calm Calm - 0.07 in Rain Rain
11:09 PM 42.8 °F 38.6 °F 42.8 °F 100% 29.36 in 4.0 mi West 6.9 mph - 0.02 in Rain Light Rain
11:53 PM 42.1 °F 33.6 °F 39.9 °F 92% 29.39 in 5.0 mi WSW 18.4 mph 25.3 mph 0.05 in Rain Light Rain